Weather observations for the past three days for
Petersburg, Dinwiddie County Airport
Imperial (Metric)
Date Time (edt) Wind (mph) Vis. (mi.) Weather Sky Cond. Temperature (ºF) Relative Humidity Wind Chill (°F) Heat Index (°F) Pressure Precipitation (in)
Air Dwpt 6 hour altimeter (in) sea level (mb) 1 hr 3 hr 6 hr
Max. Min.
21 17:55 S 5 10.00 Fair CLR 85.6 69.8 59% 90 30.03 0.0
21 16:55 S 3 7.00 Partly Cloudy SCT032 86 69.6 58% 90 30.03 0.0
21 16:35 Calm 10.00 Fair CLR 85.5 70.3 61% 90 30.04 0.0
21 16:15 S 3 10.00 Fair CLR 86.2 70 59% 91 30.04 0.0
21 15:55 S 3 10.00 Fair CLR 85.3 69.1 58% 89 30.05 0.0
21 15:35 S 3 7.00 Fair CLR 85.6 70.2 60% 90 30.05 0.0
21 15:15 SE 5 10.00 Partly Cloudy SCT032 SCT038 84 69.4 62% 88 30.05 0.0
21 14:55 Calm 10.00 Mostly Cloudy SCT028 BKN038 BKN047 83.8 70.5 64% 88 30.06 0.0
21 14:35 SE 3 7.00 Mostly Cloudy SCT028 BKN038 BKN047 83.8 71.1 66% 89 30.06 0.0
21 14:15 SW 5 10.00 Mostly Cloudy SCT028 BKN036 85.3 70.9 62% 90 30.07 0.0
21 13:55 SW 5 10.00 Partly Cloudy SCT033 84.7 71.1 84.7 70.3 64% 90 30.07 0.0
21 13:35 Calm 7.00 Fair CLR 83.8 70.2 64% 88 30.08 0.0
21 13:15 S 5 10.00 Partly Cloudy SCT024 82.9 69.8 65% 87 30.08 0.0
21 12:55 Calm 10.00 Partly Cloudy SCT024 82.8 71.2 68% 87 30.08 0.0
21 12:35 Calm 7.00 Fair CLR 82.6 71.1 68% 87 30.08 0.0
21 12:15 Calm 10.00 Fair CLR 81.7 70.2 68% 85 30.08 0.0
21 11:55 Calm 10.00 Partly Cloudy SCT020 81.9 70.7 69% 86 30.08 0.0
21 11:35 Calm 10.00 Mostly Cloudy BKN020 81.1 70.7 71% 85 30.08 0.0
21 11:15 Calm 10.00 Partly Cloudy SCT018 SCT026 80.8 71.4 73% 85 30.08 0.0
21 10:55 Calm 10.00 Partly Cloudy SCT016 80.2 70.5 72% 84 30.08 0.0
21 10:35 Calm 10.00 Fair CLR 79 71.4 78% 82 30.08 0.0
21 10:15 Calm 10.00 Partly Cloudy SCT010 78.6 71.8 80% 81 30.08 0.0
21 09:55 SE 3 10.00 Fair CLR 77.9 72.3 83% 80 30.08 0.0
21 09:35 Calm 10.00 Fair CLR 77.5 72.3 84% 79 30.08 0.0
21 09:15 Calm 7.00 Fair CLR 75.4 71.2 87% 75 30.08 0.0
21 08:55 Calm 7.00 Partly Cloudy SCT003 73 71.2 94% 30.08 0.0
21 08:35 Calm 7.00 Fair CLR 72.1 70.9 96% 30.08 0.0
21 08:15 Calm 10.00 Fair CLR 70.9 69.8 96% 30.08 0.0
21 07:55 Calm 10.00 Fair CLR 70.2 68.9 70.2 65.5 96% 30.08 0.0
21 07:35 Calm 7.00 Fair CLR 69.4 68.2 96% 30.08 0.0
21 07:15 Calm 10.00 Fair CLR 68.7 67.3 95% 30.07 0.0
21 06:55 Calm 7.00 Fair CLR 68.2 67.1 96% 30.06 0.0
21 06:35 Calm 5.00 Fog/Mist CLR 67.3 66 96% 30.06 0.0
21 06:15 Calm 7.00 Fair CLR 66.7 65.5 96% 30.06 0.0
21 05:55 Calm 7.00 Partly Cloudy SCT002 66 64.6 95% 30.06 0.0
21 05:35 Calm 5.00 Fog/Mist CLR 65.8 64.6 96% 30.05 0.0
21 05:15 Calm 5.00 Fog/Mist CLR 66.2 65.1 96% 30.04 0.0
21 04:55 Calm 7.00 Fair CLR 66 64.8 96% 30.04 0.0
21 04:35 Calm 4.00 Fog/Mist SCT002 66.6 65.3 96% 30.04 0.0
21 04:15 Calm 0.75 Fog/Mist OVC002 67.1 65.7 95% 30.04 0.0
21 03:55 Calm 7.00 Partly Cloudy SCT002 66.4 65.1 96% 30.04 0.0
21 03:35 Calm 4.00 Fog/Mist BKN002 67.1 65.8 96% 30.05 0.0
21 03:15 Calm 4.00 Fog/Mist CLR 67.1 65.7 95% 30.04 0.0
21 02:55 Calm 2.50 Fog/Mist SCT002 67.6 66.4 96% 30.04 0.0
21 02:35 Calm 1.75 Fog/Mist SCT002 67.3 66.2 96% 30.04 0.0
21 02:15 Calm 2.00 Fog/Mist CLR 68.4 67.1 96% 30.05 0.0
21 01:55 Calm 7.00 Fair CLR 69.3 68 75 69.1 96% 30.06 0.0
21 01:35 Calm 10.00 Fair CLR 70.2 68.9 96% 30.06 0.0
21 01:15 Calm 10.00 Fair CLR 69.8 68.5 96% 30.06 0.0
21 00:55 Calm 10.00 Fair CLR 70.3 69.1 96% 30.06 0.0
21 00:35 Calm 10.00 Fair CLR 70.7 69.3 95% 30.06 0.0
21 00:15 Calm 10.00 Fair CLR 70.7 69.6 96% 30.06 0.0
20 23:55 Calm 7.00 Fair CLR 70.7 69.3 95% 30.05 0.0
20 23:35 Calm 7.00 Fair CLR 70.5 69.3 96% 30.04 0.0
20 23:15 Calm 7.00 Fair CLR 70.9 69.8 96% 30.04 0.0
20 22:55 Calm 7.00 Partly Cloudy SCT015 71.2 70 96% 30.05 0.0
20 22:35 Calm 10.00 Mostly Cloudy BKN015 71.6 70.3 96% 30.06 0.0
20 22:15 Calm 10.00 Fair CLR 71.8 70.5 96% 30.07 0.0
20 21:55 Calm 7.00 Fair CLR 71.8 70.7 96% 30.06 0.0
20 21:35 Calm 10.00 Fair CLR 72.5 71.2 96% 30.07 0.0
20 21:15 Calm 10.00 Fair CLR 73.4 72 95% 30.06 0.0
20 20:55 Calm 10.00 Mostly Cloudy SCT018 BKN110 73.6 71.6 94% 30.05 0.0
20 20:35 Calm 10.00 Mostly Cloudy BKN016 BKN110 74.1 71.6 92% 30.06 0.0
20 20:15 Calm 10.00 Partly Cloudy SCT012 74.3 71.6 91% 30.06 0.0
20 19:55 Calm 10.00 Mostly Cloudy BKN012 74.8 70.5 76.1 72.1 86% 30.06 0.0 0.15
20 19:35 Calm 10.00 Mostly Cloudy BKN012 75.2 70.7 86% 75 30.05 0.0
20 19:15 Calm 10.00 Overcast OVC010 75.2 70.7 86% 75 30.04 0.0
20 18:55 N 3 10.00 Overcast OVC010 75.4 70.3 84% 76 30.04 0.0
20 18:35 N 5 10.00 Overcast BKN010 OVC050 75.4 70.7 85% 75 30.04 0.0
20 18:15 N 7 10.00 Overcast BKN008 OVC048 75 70.9 87% 75 30.05 0.0
20 17:55 N 7 10.00 Overcast SCT008 SCT046 OVC050 75 71.4 89% 74 30.05 0.0
20 17:35 N 9 10.00 Overcast BKN044 OVC050 73.9 70 88% 30.05 0.0
20 17:15 N 6 10.00 Light Rain BKN042 OVC048 72.9 69.3 89% 30.05 0.0
20 16:55 N 6 10.00 Light Rain SCT008 BKN038 OVC046 73.6 70.9 91% 30.06 0.0 0.09 0.15
20 16:35 N 9 10.00 Light Rain BKN008 BKN019 OVC037 74.8 73.4 95% 30.06 0.0 0.09
20 16:15 N 3 2.00 Heavy Rain BKN008 BKN012 OVC029 75 73.6 95% 73 30.05 0.0 0.07
20 15:55 Calm 7.00 Light Rain SCT013 OVC039 75.2 73.4 94% 74 30.05 0.0 0.02
20 15:35 Calm 4.00 Rain BKN039 OVC048 75 73.2 94% 73 30.05 0.0
20 15:15 Calm 10.00 Overcast SCT007 BKN050 OVC080 75.6 73.6 94% 75 30.05 0.0
20 14:55 Calm 10.00 Light Drizzle SCT008 BKN060 OVC080 75.4 72.5 91% 75 30.05 0.0 0.04
20 14:35 Calm 7.00 Light Rain SCT023 SCT034 OVC070 74.3 72.5 94% 30.06 0.0 0.04
20 14:15 Calm 3.00 Rain SCT020 BKN050 OVC070 72.5 71.2 96% 30.07 0.0 0.02
20 13:55 E 5 0.50 Heavy Rain OVC014 72.3 70.9 82 72.3 95% 30.07 0.0 0.36 0.36
20 13:35 Calm 2.00 Rain BKN018 BKN026 OVC035 77 73.2 88% 78 30.08 0.0 0.02
20 13:15 Calm 10.00 Overcast SCT044 BKN050 OVC110 81 71.4 73% 85 30.08 0.0
20 12:55 Calm 10.00 Overcast SCT048 SCT070 OVC110 82 71.6 71% 87 30.08 0.0
20 12:35 Calm 10.00 Light Rain SCT025 BKN050 OVC120 80.6 71.6 74% 85 30.08 0.0
20 12:15 Calm 10.00 Light Rain BKN021 BKN038 OVC050 80.6 70.7 72% 84 30.08 0.0
20 11:55 Calm 10.00 Mostly Cloudy BKN019 BKN038 BKN060 80.2 70.9 73% 84 30.09 0.0
20 11:35 Calm 10.00 Overcast SCT017 BKN041 OVC060 80.4 70.5 72% 84 30.09 0.0
20 11:15 Calm 10.00 Overcast SCT017 BKN041 OVC070 79.7 70.5 74% 83 30.1 0.0
20 10:55 Calm 10.00 Overcast SCT018 BKN030 OVC100 79 70.9 76% 82 30.1 0.0
20 10:35 Calm 10.00 Overcast BKN020 BKN030 OVC085 78.8 70 74% 81 30.1 0.0
20 10:15 Calm 7.00 Overcast SCT012 BKN017 OVC095 77.4 70.9 81% 79 30.1 0.0
20 09:55 Calm 10.00 Overcast BKN009 OVC016 77 71.4 83% 78 30.1 0.0
20 09:35 Calm 7.00 Mostly Cloudy BKN007 BKN075 BKN120 76.3 72.5 88% 77 30.11 0.0
20 09:15 Calm 7.00 Mostly Cloudy SCT007 BKN019 BKN075 75.4 72.9 92% 75 30.11 0.0
20 08:55 Calm 7.00 Overcast BKN007 OVC019 74.7 73.4 96% 30.11 0.0
20 08:35 Calm 7.00 Light Rain OVC005 74.3 73.2 96% 30.11 0.0
20 08:15 Calm 7.00 Light Rain OVC007 73.9 72.7 96% 30.11 0.0
20 07:55 Calm 7.00 Light Rain OVC007 73.4 72.1 73.4 71.2 96% 30.11 0.0
20 07:35 Calm 7.00 Light Rain OVC007 73.4 72.1 96% 30.1 0.0
20 07:15 Calm 7.00 Light Rain BKN007 OVC100 73 71.8 96% 30.1 0.0
20 06:55 Calm 10.00 Light Rain BKN005 BKN014 BKN090 73.2 71.8 95% 30.1 0.0
20 06:35 Calm 7.00 Mostly Cloudy SCT005 SCT037 BKN110 72.9 71.6 96% 30.09 0.0
20 06:15 Calm 7.00 Overcast SCT005 BKN037 OVC110 72.7 71.6 96% 30.09 0.0
20 05:55 Calm 7.00 Overcast SCT008 OVC037 72.9 71.6 96% 30.09 0.0
20 05:35 Calm 7.00 Overcast BKN008 OVC037 72.9 71.6 96% 30.1 0.0
20 05:15 Calm 7.00 Overcast BKN008 OVC013 72.7 71.6 96% 30.09 0.0
20 04:55 Calm 7.00 Mostly Cloudy BKN008 BKN013 BKN019 72.5 71.2 96% 30.08 0.0
20 04:35 Calm 7.00 Partly Cloudy SCT010 SCT015 SCT021 71.8 70.7 96% 30.08 0.0
20 04:15 Calm 7.00 Partly Cloudy SCT012 SCT030 71.8 70.7 96% 30.09 0.0
20 03:55 Calm 7.00 Partly Cloudy SCT028 71.8 70.7 96% 30.09 0.0
20 03:35 Calm 7.00 Partly Cloudy SCT015 SCT025 72 70.7 96% 30.09 0.0
20 03:15 Calm 10.00 Overcast OVC017 71.8 70.5 96% 30.09 0.0
20 02:55 Calm 7.00 Mostly Cloudy BKN019 71.6 70.2 95% 30.1 0.0
20 02:35 Calm 7.00 Partly Cloudy SCT011 SCT021 71.6 70.3 96% 30.1 0.0
20 02:15 Calm 7.00 Fair CLR 72 70.7 96% 30.11 0.0
20 01:55 Calm 7.00 Partly Cloudy SCT100 71.8 70.5 78.6 71.2 96% 30.11 0.0
20 01:35 Calm 7.00 Mostly Cloudy BKN100 71.6 70.2 95% 30.11 0.0
20 01:15 Calm 7.00 Fair CLR 71.2 70 96% 30.12 0.0
20 00:55 Calm 7.00 Fair CLR 72 70.7 96% 30.12 0.0
20 00:35 Calm 10.00 Partly Cloudy SCT110 72.9 71.2 95% 30.12 0.0
20 00:15 Calm 10.00 Partly Cloudy SCT110 73.4 71.2 93% 30.13 0.0
19 23:55 Calm 10.00 Partly Cloudy SCT100 73.8 70.9 91% 30.13 0.0
19 23:35 Calm 10.00 Overcast OVC100 74.3 70.7 89% 30.13 0.0
19 23:15 Calm 10.00 Overcast OVC100 74.3 70.3 88% 30.13 0.0
19 22:55 E 3 10.00 Overcast OVC110 74.3 70.2 87% 30.13 0.0
19 22:35 E 3 10.00 Overcast OVC110 74.5 70 86% 30.13 0.0
19 22:15 Calm 10.00 Overcast OVC110 73.9 70.5 89% 30.13 0.0
19 21:55 Calm 10.00 Overcast OVC110 74.3 70.3 88% 30.13 0.0
19 21:35 Calm 10.00 Overcast OVC110 74.1 70.2 88% 30.13 0.0
19 21:15 Calm 10.00 Mostly Cloudy BKN110 74.7 69.6 84% 30.13 0.0
19 20:55 Calm 10.00 Partly Cloudy SCT110 76.1 68.7 78% 77 30.12 0.0
19 20:35 Calm 10.00 Partly Cloudy SCT120 77 68.9 76% 79 30.11 0.0
19 20:15 Calm 10.00 Fair CLR 77.7 68.4 73% 80 30.11 0.0
19 19:55 E 3 10.00 Fair CLR 78.8 68 86 78.8 70% 81 30.1 0.0
19 19:35 E 3 10.00 Fair CLR 79 68 69% 81 30.1 0.0
19 19:15 E 3 10.00 Partly Cloudy SCT120 79.7 67.5 66% 82 30.09 0.0
19 18:55 Calm 10.00 Mostly Cloudy BKN120 81.5 66.6 61% 84 30.09 0.0
19 18:35 E 8 10.00 Partly Cloudy SCT120 81.9 64.6 56% 84 30.09 0.0
19 18:15 E 5 10.00 Mostly Cloudy BKN120 82 64.9 56% 84 30.09 0.0
19 17:55 E 8 10.00 Mostly Cloudy BKN120 84.2 65.5 53% 86 30.08 0.0
19 17:35 E 7 10.00 Overcast SCT100 OVC120 84.4 66.6 55% 87 30.08 0.0
19 17:15 SE 7 10.00 Mostly Cloudy SCT042 BKN100 BKN120 84.2 66.2 55% 87 30.08 0.0
19 16:55 E 7 10.00 Partly Cloudy SCT110 84.9 66 53% 87 30.08 0.0
19 16:35 E 8 10.00 Fair CLR 85.5 66.4 53% 88 30.08 0.0
19 16:15 E 6 10.00 Partly Cloudy SCT110 84.9 66.9 55% 88 30.08 0.0
19 15:55 E 6 10.00 Overcast SCT044 BKN075 OVC110 82.8 66 57% 85 30.09 0.0
19 15:35 E 9 10.00 Overcast BKN044 OVC075 83.7 65.8 55% 86 30.09 0.0
19 15:15 E 7 10.00 Overcast BKN042 BKN048 OVC110 84.2 64.8 52% 86 30.1 0.0
19 14:55 NE 6 10.00 Mostly Cloudy SCT038 SCT050 BKN065 83.5 66.7 57% 86 30.11 0.0
19 14:35 E 6 10.00 Partly Cloudy SCT040 SCT050 SCT110 85.6 66.6 53% 88 30.1 0.0
19 14:15 E 8 10.00 Partly Cloudy SCT040 SCT050 84.4 66 54% 87 30.11 0.0
19 13:55 E 9 10.00 Partly Cloudy SCT037 SCT044 84.9 66.4 86.2 73.8 54% 87 30.11 0.0 0.01
19 13:35 E 12 7.00 Mostly Cloudy SCT037 SCT046 BKN100 84.9 66.6 54% 87 30.12 0.0
19 13:15 NE 9 10.00 Overcast SCT035 OVC100 84.7 67.3 56% 88 30.13 0.0
19 12:55 E 8 10.00 Mostly Cloudy BKN035 BKN041 BKN100 85.6 69.1 58% 90 30.12 0.0
19 12:35 NE 10 10.00 Partly Cloudy SCT035 SCT050 SCT100 84.7 67.8 57% 88 30.12 0.0
19 12:15 E 8 10.00 Partly Cloudy SCT035 SCT050 84.2 67.6 58% 87 30.12 0.0
19 11:55 NE 6 7.00 Partly Cloudy SCT033 SCT060 83.8 67.3 58% 87 30.12 0.0
19 11:15 NE 9 10.00 Overcast BKN029 OVC120 82 68 63% 85 30.12 0.0
19 10:55 NE 7 10.00 Mostly Cloudy BKN027 83.1 69.8 64% 87 30.11 0.0 0.01 0.01
19 10:35 NE 7 10.00 Mostly Cloudy SCT025 BKN120 81.5 69.3 67% 85 30.11 0.0
19 10:15 NE 7 10.00 Mostly Cloudy BKN120 79.9 69.3 70% 83 30.11 0.0
19 09:55 NE 8 7.00 Overcast OVC120 79.3 68.9 71% 82 30.11 0.0
19 09:35 NE 7 10.00 Overcast OVC110 78.3 69.3 74% 81 30.11 0.0
19 09:15 NE 8 10.00 Overcast OVC100 77.9 69.4 75% 80 30.11 0.0
19 08:55 NE 6 10.00 Mostly Cloudy BKN110 77.4 70.2 79% 79 30.11 0.0
19 08:35 NE 5 10.00 Partly Cloudy SCT100 76.3 70.5 82% 77 30.11 0.0
19 08:15 NE 5 10.00 Partly Cloudy SCT120 74.7 70.9 88% 30.09 0.0
19 07:55 N 3 10.00 Partly Cloudy SCT120 73.6 70.3 73.8 69.8 90% 30.09 0.0
19 07:35 N 3 10.00 Partly Cloudy SCT100 72.9 70.5 92% 30.08 0.0
19 07:15 Calm 7.00 Partly Cloudy SCT100 71.8 70.2 95% 30.08 0.0
19 06:55 Calm 7.00 Fair CLR 71.1 69.8 96% 30.07 0.0
19 06:35 Calm 7.00 Fair CLR 70.5 69.1 95% 30.06 0.0
19 06:15 Calm 10.00 Fair CLR 70.3 69.1 96% 30.05 0.0
19 05:55 NE 3 7.00 Fair CLR 70.7 69.1 95% 30.04 0.0
19 05:35 N 3 10.00 Fair CLR 70.9 69.3 95% 30.04 0.0
19 05:15 Calm 7.00 Fair CLR 69.8 68.5 96% 30.03 0.0
19 04:55 Calm 5.00 Fog/Mist CLR 69.8 68.5 96% 30.02 0.0
19 04:35 Calm 5.00 Fog/Mist CLR 70.2 68.9 96% 30.01 0.0
19 04:15 Calm 7.00 Partly Cloudy SCT110 70.7 69.3 95% 30.01 0.0
19 03:55 Calm 5.00 Fog/Mist BKN110 71.1 69.8 96% 30.01 0.0
19 03:35 Calm 5.00 Fog/Mist SCT120 71.6 70.5 96% 30.01 0.0
19 03:15 Calm 10.00 Fair CLR 73.6 70.9 91% 30.01 0.0
19 02:55 N 3 10.00 Fair CLR 73.4 71.6 94% 30.01 0.0
19 02:35 Calm 10.00 Partly Cloudy SCT110 72.9 71.6 96% 30.02 0.0
19 02:15 Calm 7.00 Mostly Cloudy BKN110 72.9 71.6 96% 30.02 0.0
19 01:55 Calm 10.00 Mostly Cloudy SCT045 BKN120 72.7 71.6 77.9 72.5 96% 30.02 0.0
19 01:35 Calm 7.00 Partly Cloudy SCT045 SCT120 72.7 71.6 96% 30.02 0.0
19 01:15 Calm 5.00 Fog/Mist SCT120 72.5 71.1 95% 30.02 0.0
19 00:55 Calm 3.00 Fog/Mist BKN120 72.5 71.2 96% 30.02 0.0
19 00:35 Calm 4.00 Fog/Mist CLR 72.5 71.4 96% 30.02 0.0
19 00:15 Calm 5.00 Fog/Mist CLR 73.2 71.8 95% 30.02 0.0
18 23:55 Calm 5.00 Fog/Mist CLR 73.2 72 96% 30.02 0.0
18 23:35 Calm 5.00 Fog/Mist SCT041 72.9 71.6 96% 30.02 0.0
18 23:15 Calm 5.00 Fog/Mist SCT028 SCT034 SCT041 73.4 72.1 96% 30.01 0.0
18 22:55 Calm 4.00 Fog/Mist SCT031 SCT041 73.9 72.7 96% 30.01 0.0
18 22:35 Calm 5.00 Fog/Mist SCT031 SCT036 74.3 73 96% 30.01 0.0
18 22:15 Calm 4.00 Fog/Mist OVC029 74.5 73.4 96% 30 0.0
18 21:55 Calm 4.00 Fog/Mist OVC029 74.7 73.4 96% 30 0.0
18 21:35 Calm 7.00 Mostly Cloudy BKN029 74.8 73.6 96% 30 0.0
18 21:15 Calm 7.00 Partly Cloudy SCT029 74.8 73.6 96% 29.99 0.0
18 20:55 Calm 7.00 Fair CLR 75.2 73.9 96% 73 29.99 0.0
18 20:35 Calm 5.00 Fog/Mist SCT075 75.4 74.3 96% 74 29.98 0.0
18 20:15 Calm 10.00 Fair CLR 75.7 74.5 96% 75 29.97 0.0
18 19:55 Calm 10.00 Mostly Cloudy SCT046 SCT050 BKN065 78.1 72.7 81.3 74.1 84% 81 29.96 0.0 0.34
18 19:35 Calm 10.00 Partly Cloudy SCT065 78.8 72.1 80% 82 29.95 0.0
18 19:15 N 5 7.00 Partly Cloudy SCT018 78.8 72 80% 82 29.95 0.0
18 18:55 N 7 10.00 Partly Cloudy SCT014 79.5 72.1 78% 83 29.93 0.0
Date Time (edt) Wind (mph) Vis. (mi.) Weather Sky Cond. Air Dwpt Max. Min. Relative Humidity Wind Chill (°F) Heat Index (°F) altimeter (in) sea level (mb) 1 hr 3 hr 6 hr
6 hour
Temperature (ºF) Pressure Precipitation (in)